GW1228 Weather Reports


time (UTC)temp
F
wind
direction
speed
knots
gust
knots
rain 1hr
in
rain 24hr
in
rain mn
in
humidity
%
barometer
mb
20260510081553 63 0 0.0 0.0 0.00 0.00 0.00 89 1012.9
20260510080054 63 0 0.0 0.0 0.00 0.00 0.00 88 1013.0
20260510074602 63 0 0.0 0.0 0.00 0.00 0.00 88 1012.7
20260510073052 63 0 0.0 0.0 0.00 0.00 0.00 88 1013.0
20260510071556 64 0 0.0 0.0 0.00 0.00 0.00 88 1013.1
20260510070107 64 0 0.0 0.0 0.00 0.00 0.00 88 1013.3
20260510064555 64 0 0.0 0.0 0.00 0.00 0.00 88 1013.2
20260510063056 64 0 0.0 0.0 0.00 0.00 0.00 87 1013.3
20260510061553 64 0 0.0 0.0 0.00 0.00 0.00 87 1013.1
20260510060051 65 0 0.0 0.9 0.00 0.00 0.00 86 1013.1
20260510054559 65 0 0.0 0.9 0.00 0.00 0.00 85 1013.0
20260510053048 65 0 0.0 0.0 0.00 0.00 0.00 85 1012.9
20260510051547 66 0 0.0 0.0 0.00 0.00 0.00 84 1013.1
20260510050051 67 0 0.0 0.0 0.00 0.00 0.00 83 1012.9
20260510044557 67 0 0.0 0.0 0.00 0.00 0.00 83 1012.9
20260510043054 68 0 0.0 0.0 0.00 0.00 0.00 82 1012.8
20260510041558 68 0 0.0 0.0 0.00 0.00 0.00 81 1012.8
20260510040052 69 0 0.0 0.0 0.00 0.00 0.00 80 1012.7
20260510034550 69 0 0.0 0.0 0.00 0.00 0.00 80 1012.6
20260510033113 70 0 0.0 0.0 0.00 0.00 0.00 79 1012.7
20260510031604 70 0 0.0 0.9 0.00 0.00 0.00 78 1012.6
20260510030051 70 0 0.0 0.9 0.00 0.00 0.00 78 1012.4
20260510024554 71 0 0.0 0.0 0.00 0.00 0.00 78 1012.4
20260510023052 72 0 0.0 0.0 0.00 0.00 0.00 77 1012.2
20260510021549 72 0 0.0 0.0 0.00 0.00 0.00 76 1012.1
20260510020049 73 0 0.0 0.0 0.00 0.00 0.00 75 1012.0
20260510014602 73 0 0.0 1.7 0.00 0.00 0.00 74 1011.8
20260510013048 74 0 0.0 0.0 0.00 0.00 0.00 74 1011.7
20260510011556 75 0 0.0 0.0 0.00 0.00 0.00 72 1011.3
20260510010100 76 0 0.0 0.0 0.00 0.00 0.00 70 1011.1
20260510004556 77 0 0.0 0.0 0.00 0.00 0.00 68 1010.8
20260510003058 78 0 0.0 0.0 0.00 0.00 0.00 67 1010.6
20260510001554 78 0 0.0 0.9 0.00 0.00 0.00 66 1010.4
20260510000054 79 0 0.0 0.9 0.00 0.00 0.00 65 1010.1
20260509234605 79 0 0.0 3.5 0.00 0.00 0.00 64 1010.1
20260509233049 79 226 0.0 2.6 0.00 0.00 0.00 64 1010.0
20260509231552 80 0 0.0 3.5 0.00 0.00 0.00 62 1010.0
20260509230052 80 0 0.0 2.6 0.00 0.00 0.00 61 1009.9
20260509224550 80 0 0.0 0.9 0.00 0.00 0.00 60 1010.0
20260509223057 80 92 0.0 1.7 0.00 0.00 0.00 59 1009.9
20260509221554 79 0 0.0 0.9 0.00 0.00 0.00 61 1009.7
20260509220059 80 94 0.0 0.9 0.00 0.00 0.00 62 1009.7
20260509214548 80 149 0.0 1.7 0.00 0.00 0.00 59 1009.6
20260509213055 80 0 0.0 1.7 0.00 0.00 0.00 60 1009.7
20260509211553 81 0 0.0 0.9 0.00 0.00 0.00 60 1009.9
20260509210051 81 0 0.0 2.6 0.00 0.00 0.00 57 1010.1
20260509204558 81 0 0.0 2.6 0.00 0.00 0.00 58 1010.1
20260509203052 81 0 0.0 2.6 0.00 0.00 0.00 59 1010.3
20260509201550 81 0 0.0 0.9 0.00 0.00 0.00 59 1010.6
20260509200054 81 0 0.0 0.9 0.00 0.00 0.00 60 1010.8
20260509194554 81 0 0.9 2.6 0.00 0.00 0.00 56 1010.8
20260509193056 80 209 0.0 2.6 0.00 0.00 0.00 59 1010.8
20260509191555 80 0 0.0 3.5 0.00 0.00 0.00 58 1011.0
20260509190056 80 0 0.0 0.9 0.00 0.00 0.00 60 1011.2
20260509184550 80 136 0.0 2.6 0.00 0.00 0.00 60 1011.2
20260509183052 79 99 0.9 3.5 0.00 0.00 0.00 60 1011.3
20260509181603 79 0 0.0 3.5 0.00 0.00 0.00 60 1011.3
20260509180049 78 98 0.9 1.7 0.00 0.00 0.00 60 1011.2
20260509174601 78 331 0.0 3.5 0.00 0.00 0.00 61 1011.4
20260509173107 77 86 0.0 1.7 0.00 0.00 0.00 62 1011.6
20260509171552 77 0 0.9 3.5 0.00 0.00 0.00 62 1011.6
20260509170052 77 306 0.0 1.7 0.00 0.00 0.00 64 1011.4
20260509164551 77 328 0.0 2.6 0.00 0.00 0.00 65 1011.5
20260509163055 76 312 0.0 2.6 0.00 0.00 0.00 67 1011.4
20260509161603 75 0 0.0 2.6 0.00 0.00 0.00 69 1011.4
20260509160059 74 286 0.0 3.5 0.00 0.00 0.00 70 1011.4
20260509154600 73 221 0.9 3.5 0.00 0.00 0.00 72 1011.4
20260509153046 72 324 0.0 1.7 0.00 0.00 0.00 74 1011.2
20260509151547 71 254 0.0 2.6 0.00 0.00 0.00 76 1011.2
20260509150049 70 322 0.9 2.6 0.00 0.00 0.00 77 1011.2
20260509144605 69 304 0.9 4.3 0.00 0.00 0.00 79 1011.2
20260509143046 67 0 0.9 2.6 0.00 0.00 0.00 82 1011.4
20260509141547 66 0 0.0 1.7 0.00 0.00 0.00 85 1011.4
20260509140100 65 308 0.0 1.7 0.00 0.00 0.00 87 1011.6
20260509134552 64 0 0.0 1.7 0.00 0.00 0.00 89 1011.7
20260509133051 62 0 0.9 2.6 0.00 0.00 0.00 92 1011.7
20260509131557 61 0 0.0 1.7 0.00 0.00 0.00 93 1011.6
20260509130059 59 0 0.0 0.0 0.00 0.00 0.00 93 1011.6
20260509124546 58 0 0.0 0.0 0.00 0.00 0.00 92 1011.4
20260509123051 58 0 0.0 0.9 0.00 0.00 0.00 91 1011.5
20260509121559 57 0 0.0 0.0 0.00 0.00 0.00 91 1011.4
20260509120051 57 0 0.0 0.0 0.00 0.00 0.00 90 1011.4
20260509114547 57 217 0.0 0.9 0.00 0.00 0.00 90 1011.1
20260509113057 57 0 0.0 0.0 0.00 0.00 0.00 90 1011.2
20260509111556 58 0 0.0 0.9 0.00 0.00 0.00 90 1011.1
20260509110050 58 0 0.0 0.0 0.00 0.00 0.00 89 1010.5
20260509104547 58 0 0.0 0.0 0.00 0.00 0.00 89 1010.0
20260509103049 59 0 0.0 0.0 0.00 0.00 0.00 89 1009.9
20260509101550 59 0 0.0 0.0 0.00 0.00 0.00 89 1009.5
20260509100047 59 0 0.0 0.0 0.00 0.00 0.00 89 1009.6
20260509094551 59 0 0.0 0.0 0.00 0.00 0.00 89 1009.4
20260509093047 60 0 0.0 0.9 0.00 0.00 0.00 89 1009.4
20260509091547 60 0 0.0 0.9 0.00 0.00 0.00 89 1009.4
20260509084546 60 0 0.0 0.0 0.00 0.00 0.00 88 1009.7
20260509083051 60 217 0.0 0.9 0.00 0.00 0.00 88 1009.8